GFSMA_sfc_dewp_000.txt.gz
Dewpoint
54 53 53 54 53 53 53 52 50 48 48 44 42 40 37 37 38 39 37 60 62 59 57 58 58 58 58 56 56 56 56 57 57 57 57 57 57 57 57 57 57 56 56
55 53 52 53 53 53 52 52 50 49 49 50 47 41 38 38 38 38 41 45 60 60 55 54 55 56 56 57 56 56 57 57 57 57 57 57 57 57 58 58 58 58 58
55 54 52 52 54 54 53 53 52 51 50 50 49 46 42 39 39 38 39 40 50 58 57 53 53 54 54 56 56 56 56 59 60 60 59 58 59 59 57 57 57 57 57
56 56 55 53 54 54 54 54 54 53 52 51 50 50 46 44 41 40 39 39 41 45 55 58 57 55 55 55 56 56 56 59 60 60 60 60 60 59 56 57 57 57 58
56 56 56 55 53 54 54 54 54 53 53 53 51 50 50 49 46 42 41 40 41 43 42 53 57 57 57 56 56 56 56 59 60 60 60 60 60 58 57 57 58 58 58
56 56 56 56 55 53 54 55 54 54 53 53 52 51 50 50 50 50 48 47 46 44 44 43 47 53 57 58 56 55 56 57 59 60 60 60 59 57 58 58 58 58 59
56 56 56 56 57 55 54 54 55 54 54 54 53 52 52 52 50 49 50 50 49 48 46 45 45 45 46 58 59 56 56 56 57 59 60 60 58 58 58 58 59 58 58
58 57 57 57 57 57 57 54 55 55 55 55 53 51 50 50 51 51 51 50 50 50 49 46 44 46 46 47 51 58 59 56 56 57 58 58 58 58 59 58 58 58 57
59 59 58 58 58 58 58 58 56 55 55 56 55 53 49 48 48 49 50 50 51 50 50 48 46 45 45 46 50 52 57 58 56 58 59 59 59 58 58 58 57 56 55
59 60 60 59 59 60 59 59 59 57 56 55 56 55 53 50 48 47 48 47 46 45 46 47 45 47 48 49 51 52 54 56 56 57 59 59 58 58 58 57 56 55 55
59 60 60 60 60 60 60 60 60 59 58 57 56 55 55 54 53 51 49 49 49 48 47 48 49 48 48 51 51 51 56 58 57 58 59 58 59 58 56 55 55 53 52
56 59 60 60 60 60 61 61 61 60 59 58 57 57 56 54 53 52 51 51 50 50 50 49 49 48 50 51 52 53 55 57 57 57 59 59 57 55 53 54 52 51 50
55 56 58 59 60 60 61 61 61 61 61 59 58 57 56 56 55 53 52 51 50 50 49 50 50 50 49 51 52 52 54 56 57 56 58 57 55 53 51 50 49 48 48
55 56 57 58 58 59 60 61 61 61 61 61 60 59 58 57 57 55 53 51 50 50 50 49 50 50 50 50 51 53 50 54 54 54 55 54 52 50 48 47 46 46 45
45 45 50 54 56 58 58 58 59 59 60 60 60 60 60 59 58 56 56 54 52 50 49 50 50 51 50 50 51 51 46 51 52 53 53 52 51 47 46 45 43 43 42
42 43 44 45 47 50 54 56 57 58 57 58 58 59 59 59 58 57 56 55 54 53 51 51 51 52 52 52 52 47 43 47 50 51 51 50 47 46 44 42 42 40 39
43 42 42 42 43 44 46 48 50 53 56 56 57 58 58 58 58 57 56 55 55 54 53 52 54 54 48 46 47 44 45 45 47 50 48 46 45 43 42 41 39 37 37
45 44 44 44 43 43 44 46 47 48 50 52 54 56 56 57 58 58 56 55 55 55 54 53 54 54 47 44 45 43 43 42 44 46 46 45 43 41 40 39 36 36 36
44 44 45 45 45 45 45 44 45 46 48 50 52 53 54 55 55 56 57 56 55 55 55 54 53 54 48 44 43 43 42 41 40 44 44 43 41 39 39 36 35 35 35
42 42 43 43 44 44 45 45 45 46 49 49 51 52 53 54 54 55 55 56 56 56 55 54 54 53 44 42 43 42 39 40 38 38 39 37 37 37 36 35 34 33 33
40 40 40 40 41 42 41 45 45 45 46 47 48 49 51 51 50 53 55 55 56 56 55 54 53 50 44 40 41 42 42 39 39 35 32 31 32 31 30 32 33 33 33
38 38 38 39 39 39 45 46 46 46 45 46 47 47 49 50 51 52 53 52 54 55 54 53 53 51 49 47 44 43 42 37 34 34 31 29 28 28 28 27 30 30 30
32 35 37 37 38 38 44 46 48 45 45 45 46 47 48 50 50 52 52 53 53 53 54 55 54 53 51 49 45 42 41 38 33 30 28 24 26 25 27 25 30 30 30
29 29 32 35 36 37 43 47 46 41 41 42 44 44 47 48 50 51 52 52 53 54 54 54 54 54 53 51 47 44 41 33 30 30 28 24 25 24 26 27 30 29 30
26 25 27 29 34 34 41 44 39 36 39 40 42 42 43 45 46 49 50 50 50 52 46 48 51 51 51 49 46 38 34 32 26 25 27 24 22 22 23 23 23 26 27
20 22 21 25 32 31 37 41 38 35 35 38 39 39 42 43 45 46 47 48 48 50 42 40 41 43 45 44 43 40 34 31 29 27 28 24 21 21 20 22 22 22 22

GFSMA_sfc_dewp_003.txt.gz
Dewpoint
55 55 56 56 58 57 58 56 56 52 51 48 44 43 42 43 43 41 38 60 63 63 59 59 60 60 61 60 58 57 57 58 58 58 58 58 58 58 58 57 57 57 57
55 54 54 54 54 54 54 54 53 52 49 48 45 43 41 39 38 38 39 40 62 63 61 58 58 59 59 59 59 59 60 59 58 58 58 58 58 58 58 58 58 58 58
56 55 53 53 53 53 52 52 52 51 49 48 49 49 44 40 38 38 38 40 44 60 61 56 56 56 58 58 58 58 61 61 61 61 61 61 61 61 58 58 58 58 58
56 55 55 53 53 54 54 53 53 52 52 50 49 50 49 45 41 38 38 38 40 41 55 59 58 59 59 57 57 57 60 61 61 61 61 61 61 61 58 57 57 57 58
56 55 55 55 53 54 54 54 54 53 53 52 52 51 50 50 48 45 42 40 39 41 42 50 58 57 58 59 56 57 58 61 61 61 61 61 61 61 59 58 58 58 58
55 56 56 56 55 53 53 55 54 54 53 53 52 52 51 50 50 50 48 44 43 42 41 41 43 52 57 58 58 56 56 59 60 61 61 61 61 61 59 57 58 59 59
56 56 56 56 57 55 54 53 54 54 54 54 52 52 52 52 50 50 50 49 48 47 45 43 43 43 45 57 58 58 58 57 60 60 61 61 61 61 58 58 59 59 59
58 57 56 56 57 57 56 54 54 54 54 54 52 50 50 51 52 52 52 49 48 48 48 48 46 45 45 45 49 57 58 57 56 57 60 61 61 60 58 59 59 60 59
60 59 58 57 57 58 57 57 56 55 54 55 55 53 51 49 47 49 51 52 51 51 50 50 49 46 45 46 49 51 55 57 56 57 58 59 60 59 60 60 60 59 58
60 60 60 60 59 59 58 58 59 57 55 55 56 55 54 50 48 47 49 48 50 50 51 51 50 48 46 46 48 50 52 55 56 56 58 59 60 61 61 61 60 59 58
58 60 60 60 60 60 60 60 60 60 59 57 56 56 55 55 53 52 50 50 49 47 48 48 48 46 45 46 47 49 54 55 56 57 58 59 60 61 61 60 60 58 57
56 57 60 60 60 60 60 61 61 60 61 60 59 58 56 54 54 53 52 52 51 51 50 47 46 46 46 46 48 51 54 56 58 58 58 59 60 60 60 60 59 57 56
54 53 55 57 60 61 61 61 61 61 61 61 60 59 58 57 56 55 53 52 51 51 51 51 50 49 48 49 49 51 52 55 57 59 58 59 60 61 60 59 58 56 54
46 46 45 47 49 55 59 61 62 62 62 61 61 61 60 59 58 57 56 54 52 50 50 49 50 50 50 50 50 52 50 54 56 58 59 59 59 59 59 56 55 53 51
44 44 43 43 43 44 46 52 54 58 59 59 59 59 59 59 59 59 58 57 54 51 50 49 49 51 50 50 50 50 50 51 55 56 57 57 57 57 56 54 52 50 48
45 45 45 44 44 43 44 44 46 47 49 52 55 57 57 57 58 59 59 58 57 55 52 52 51 52 52 51 51 51 50 52 54 56 56 55 55 55 54 52 49 47 46
45 45 45 45 45 45 45 44 44 45 45 47 49 52 53 55 56 56 57 57 57 56 54 53 53 53 51 52 50 51 50 49 51 54 55 55 54 54 52 49 48 45 44
43 43 43 44 44 44 44 44 44 45 45 46 47 50 51 52 53 55 55 55 56 56 55 53 53 54 52 49 50 48 47 48 48 51 53 53 53 52 49 48 46 44 42
39 40 41 41 40 41 41 41 42 44 45 46 48 49 50 51 51 52 53 54 54 54 55 55 54 55 55 46 44 44 44 45 45 48 52 52 51 49 48 46 44 43 40
38 39 39 38 38 40 40 39 42 39 41 44 47 48 48 49 50 50 51 52 53 53 53 53 53 54 54 47 47 47 42 43 43 43 47 49 49 48 46 44 43 39 39
35 36 34 33 39 38 38 40 39 40 44 46 46 46 47 47 48 49 50 51 52 52 52 51 51 52 53 44 44 45 46 44 42 42 42 44 43 42 42 42 40 40 37
31 31 31 36 33 37 41 43 43 44 45 40 38 40 43 45 47 49 51 51 52 51 50 50 50 50 50 52 50 47 45 40 38 40 39 38 39 37 37 36 37 36 36
25 24 30 28 30 33 39 43 43 39 33 35 39 38 42 41 42 44 46 48 49 50 51 51 51 51 52 52 52 49 47 44 43 37 38 35 35 34 34 32 34 33 33
20 20 23 22 26 23 36 41 44 30 31 34 36 37 40 35 38 43 44 45 45 46 48 50 51 51 52 53 53 51 48 41 33 34 35 31 31 31 31 31 34 32 33
18 16 16 21 17 21 33 40 34 29 27 29 33 37 30 31 38 41 41 42 42 42 44 46 47 48 48 50 52 42 36 35 31 31 31 31 29 30 29 27 27 32 32
14 15 12 14 24 22 33 33 29 26 27 28 34 31 34 34 38 39 37 39 39 39 41 42 45 46 44 46 49 47 44 39 32 29 31 29 28 28 24 24 22 23 24

GFSMA_sfc_dewp_006.txt.gz
Dewpoint
57 57 58 59 59 58 58 57 57 56 54 52 50 47 47 49 51 48 44 51 57 64 61 61 61 61 61 61 60 59 59 59 59 59 58 58 58 58 58 58 58 58 57
57 56 56 57 57 58 57 57 56 56 54 52 50 47 44 44 45 46 44 42 53 62 63 59 60 61 61 61 61 62 62 62 60 60 61 61 60 60 59 59 59 59 59
56 56 55 54 55 55 55 55 54 53 52 50 49 48 45 43 41 40 38 38 41 55 62 60 59 61 62 60 60 61 63 63 63 62 62 63 62 62 61 60 59 59 59
56 55 55 55 53 53 53 52 52 52 52 50 50 48 48 48 46 43 40 38 38 38 47 60 60 60 60 60 58 59 62 62 63 63 62 62 63 63 63 62 61 60 59
56 55 55 55 54 53 53 53 53 53 52 52 52 51 50 50 50 48 45 42 39 40 39 46 54 58 58 59 58 57 60 61 61 62 62 63 62 63 63 62 62 61 59
55 56 56 55 55 54 53 53 53 53 53 53 52 52 52 52 52 51 50 48 45 42 40 40 41 46 56 58 59 59 60 60 60 61 62 62 62 62 63 63 62 61 59
55 55 55 55 56 55 55 54 53 53 53 53 52 52 53 53 52 52 52 51 50 48 45 43 42 42 43 54 58 59 60 60 60 60 60 61 62 62 63 63 62 62 60
57 56 56 56 56 56 56 55 54 53 54 54 53 53 51 52 53 53 53 52 51 51 49 47 45 44 44 44 46 56 58 59 58 59 60 60 61 62 62 63 62 62 61
60 59 58 57 57 57 56 56 56 54 54 55 54 54 52 50 48 50 51 52 52 52 51 49 49 48 48 47 49 50 54 57 57 58 58 59 60 62 62 62 62 61 61
59 60 60 59 59 58 57 57 57 57 57 55 57 55 55 55 52 51 51 49 50 51 51 52 51 50 49 48 49 50 52 54 56 58 58 57 57 58 60 60 60 61 62
54 55 58 59 60 60 60 59 59 59 59 58 57 57 56 55 55 54 52 52 52 51 50 50 51 51 51 50 50 50 53 55 56 57 58 57 58 59 60 60 60 61 61
51 49 48 53 58 60 60 61 61 61 61 60 60 59 57 56 55 54 54 53 53 53 53 50 49 48 48 48 49 51 52 54 56 57 58 57 59 60 61 61 61 61 61
45 44 44 44 44 46 50 56 59 60 61 60 60 59 59 59 58 57 56 55 55 55 54 53 52 52 51 50 48 49 50 53 55 57 57 58 59 60 60 61 60 61 61
45 44 44 44 44 44 44 45 48 52 55 57 57 58 58 57 57 58 57 56 53 54 53 53 53 52 52 51 51 51 49 52 53 55 58 59 57 58 59 60 61 61 61
43 43 44 44 44 44 44 44 45 46 47 49 50 52 54 55 56 57 57 57 55 52 51 53 53 52 51 51 52 51 51 51 53 54 55 56 56 57 57 58 59 59 59
42 42 42 42 43 44 44 44 44 44 44 45 46 47 48 50 52 55 56 56 55 54 51 52 52 55 54 52 52 52 52 52 52 54 55 55 55 56 56 57 57 58 57
38 39 39 40 41 42 40 40 41 41 41 43 46 46 48 49 50 52 53 53 53 53 51 50 53 55 56 54 53 52 52 52 52 53 54 55 55 55 56 56 56 56 54
35 35 37 37 37 35 37 39 39 39 41 38 39 43 46 47 49 50 50 50 50 51 51 49 50 52 53 55 55 53 52 52 52 52 54 54 55 55 55 55 54 53 51
32 31 33 32 31 33 37 35 37 39 36 38 40 43 46 47 45 46 48 48 48 49 50 49 49 51 52 53 52 51 52 52 51 52 53 53 55 55 55 54 53 51 50
28 27 27 26 29 34 30 33 37 33 38 39 44 46 44 40 40 44 45 46 47 48 48 48 49 48 49 50 51 52 49 46 48 47 49 50 53 54 54 53 51 49 48
23 25 22 22 24 30 23 34 30 31 35 41 41 35 37 39 43 45 40 38 43 44 44 46 46 48 49 48 47 47 47 50 46 47 45 46 50 51 51 51 48 47 46
19 20 19 20 26 18 32 36 34 30 37 32 29 29 35 37 41 38 38 41 43 43 44 44 44 44 45 48 49 50 49 47 46 44 45 45 46 46 46 47 46 46 44
17 16 16 18 15 17 32 34 37 28 26 27 25 26 28 34 35 29 34 39 37 41 43 43 42 42 43 44 48 48 48 49 47 42 43 41 39 41 40 42 45 44 43
13 12 14 14 15 12 30 33 35 20 17 18 25 25 30 34 32 33 34 34 34 37 38 40 41 41 42 44 46 46 47 46 37 38 40 37 35 37 36 38 43 43 41
12 13 13 13 13 13 28 34 28 19 23 25 25 26 32 33 35 36 33 34 35 36 40 42 43 44 44 45 46 45 43 39 36 34 34 33 31 30 32 33 37 40 39
13 14 13 14 18 13 25 27 26 22 23 25 26 28 35 33 34 34 32 34 35 37 39 39 40 42 44 44 44 42 43 41 38 31 32 32 30 30 28 30 32 33 36

GFSMA_sfc_dewp_009.txt.gz
Dewpoint
58 57 56 57 57 58 57 57 56 56 55 54 53 51 50 48 47 48 49 52 55 55 57 60 63 62 61 61 60 59 60 59 59 59 59 59 59 59 59 59 58 58 58
58 57 56 56 57 57 57 57 57 56 56 55 54 52 50 47 46 47 49 49 54 55 55 57 60 61 62 62 62 64 64 63 62 62 62 62 62 61 59 59 59 59 59
58 58 57 55 56 56 56 56 56 55 54 54 53 52 50 48 46 44 43 43 44 52 55 57 57 60 63 61 62 64 64 64 64 64 63 63 63 63 63 62 62 61 60
57 56 56 56 55 54 54 54 53 53 53 52 52 51 50 49 48 46 44 43 42 40 45 52 57 60 62 62 58 61 63 63 63 63 64 64 63 63 63 64 63 63 63
56 56 56 56 55 54 53 53 53 52 52 52 52 51 51 50 50 49 48 47 45 44 42 47 51 55 58 60 59 59 61 61 61 62 62 63 63 63 63 64 64 63 63
55 55 55 55 55 55 54 53 53 53 53 53 52 52 52 53 52 52 51 51 49 46 45 43 44 45 53 56 59 59 60 60 60 60 61 62 62 63 63 63 63 63 63
54 54 55 55 55 55 55 55 54 53 53 53 53 53 53 53 53 53 53 53 52 51 50 46 44 44 44 53 55 57 60 61 61 60 60 60 61 62 62 63 62 63 63
57 56 55 55 55 55 55 55 55 54 54 54 53 54 52 53 53 53 53 53 53 53 52 51 49 46 46 46 47 53 56 58 59 61 61 61 61 61 62 62 62 62 63
59 59 59 58 58 57 56 57 56 55 55 56 54 54 52 51 51 51 51 53 53 53 52 52 51 49 48 47 49 49 53 54 56 58 60 62 62 62 62 62 62 62 62
52 53 55 57 58 59 58 58 58 58 57 56 57 56 55 55 53 53 53 52 51 52 52 52 52 51 50 49 51 51 52 54 55 58 59 59 61 61 60 62 62 62 62
48 47 46 48 49 52 55 58 59 59 59 58 58 58 57 56 56 54 52 53 54 53 52 52 52 52 52 51 51 51 54 56 57 58 59 60 60 60 59 60 61 62 62
46 45 44 44 45 45 47 48 50 52 56 58 58 57 56 55 55 54 54 54 54 55 55 54 52 51 52 52 52 53 54 55 57 58 60 60 60 60 60 60 62 62 62
43 43 44 43 43 44 45 45 47 48 49 50 51 52 54 55 54 54 53 52 52 53 56 57 56 53 52 52 52 51 52 55 56 57 59 60 60 60 60 61 61 61 62
43 41 42 42 42 43 44 44 46 47 47 47 47 48 49 50 51 53 52 51 49 49 50 50 53 55 55 54 53 53 50 52 54 56 58 58 58 58 58 59 60 60 61
38 38 40 39 40 41 42 43 41 42 43 44 46 47 48 47 49 50 51 52 50 47 45 47 49 51 55 55 54 53 53 54 55 54 56 56 56 56 56 57 58 58 59
36 36 36 37 38 38 36 36 39 40 40 40 42 41 41 43 47 49 50 51 50 49 46 46 47 50 52 54 54 53 52 52 54 55 55 55 55 55 55 56 56 57 57
31 31 31 31 30 30 31 35 34 35 38 37 36 38 40 43 46 47 46 47 46 47 46 45 47 48 50 51 52 54 54 53 53 54 55 55 55 55 55 55 56 56 57
26 27 25 25 23 25 28 30 28 34 31 31 35 38 40 44 44 43 42 42 45 45 44 43 44 45 47 49 50 52 53 54 53 53 54 54 54 54 55 55 55 55 55
22 21 22 21 21 22 28 24 23 31 25 27 32 36 43 39 40 36 38 43 42 38 40 41 44 45 45 47 49 50 51 53 54 52 54 54 54 54 55 55 55 55 55
18 18 19 18 19 20 21 19 25 25 26 30 34 41 34 33 35 35 39 34 31 36 38 38 39 41 42 44 46 48 48 50 49 51 51 51 52 53 54 55 54 53 53
16 16 16 15 16 16 12 21 23 25 30 23 21 25 25 30 34 37 37 34 33 35 36 34 36 38 38 40 41 44 44 46 48 50 49 48 48 49 50 52 52 53 53
14 14 14 14 15 13 25 28 28 28 24 18 16 18 25 29 28 37 37 37 36 34 33 34 34 34 36 38 40 42 42 42 41 46 47 47 48 47 48 50 52 52 51
13 13 13 13 13 14 25 28 30 25 20 20 22 24 25 25 31 34 35 36 36 35 35 34 34 36 36 38 39 39 39 40 42 45 45 44 44 45 47 46 50 51 50
13 13 13 14 14 14 25 27 28 21 22 22 23 25 25 27 31 32 31 29 31 31 32 34 37 38 39 39 41 41 41 41 42 44 43 41 42 42 38 40 48 48 47
14 14 14 15 15 15 25 27 27 23 24 24 25 26 29 28 31 32 29 29 29 30 33 38 39 39 40 39 40 41 39 39 39 41 39 40 34 32 33 35 42 46 45
15 15 15 15 19 16 24 28 27 25 25 26 31 30 31 29 31 32 28 29 32 35 36 35 35 35 35 36 39 40 38 35 36 36 35 35 31 30 29 30 33 41 41

GFSMA_sfc_dewp_012.txt.gz
Dewpoint
57 57 56 56 56 57 57 57 57 57 57 56 55 54 53 52 50 49 48 52 54 56 58 57 58 60 61 64 64 64 63 62 61 62 62 62 61 60 60 59 60 59 59
58 57 56 56 56 57 57 57 57 57 57 56 55 54 54 53 51 49 48 47 53 55 57 58 58 57 59 61 64 65 64 64 63 63 63 63 63 63 62 61 61 60 60
58 58 57 56 56 56 56 56 56 56 56 55 55 55 54 53 51 50 48 47 48 54 55 58 58 58 57 57 59 64 64 64 64 64 64 63 63 63 63 63 63 63 62
57 57 57 57 57 55 55 55 55 54 54 54 53 53 53 52 51 50 49 48 47 46 48 53 56 57 59 58 58 60 62 62 63 63 63 63 64 63 63 64 64 64 63
57 57 57 56 56 55 54 54 54 53 53 53 52 52 52 51 51 51 50 49 48 48 47 49 53 55 57 59 58 58 61 61 61 61 62 63 63 63 64 64 64 64 64
55 56 56 55 55 55 55 54 54 54 53 53 53 53 53 53 53 52 52 52 51 50 48 47 48 49 54 56 57 59 61 62 61 60 61 61 61 63 63 63 63 64 64
55 54 54 55 55 55 55 55 55 54 54 54 53 53 54 54 53 53 53 53 53 52 51 50 49 48 48 54 56 57 58 60 62 62 61 61 61 61 62 63 62 62 63
58 57 57 56 56 56 56 55 55 55 56 55 54 54 52 53 54 54 54 54 53 53 53 52 51 48 48 48 49 54 57 58 59 60 62 63 63 62 62 62 62 62 63
47 47 49 51 53 56 56 57 57 57 56 56 56 55 52 52 54 54 52 53 53 53 53 53 53 52 50 48 50 51 54 56 57 59 60 61 63 63 63 63 63 63 62
46 44 45 45 46 49 48 50 50 55 56 55 56 57 57 56 53 51 54 54 52 52 53 53 53 52 52 51 51 51 52 54 56 59 60 60 60 61 61 64 64 63 62
45 44 43 44 43 44 45 46 46 47 48 50 50 52 53 53 53 52 48 49 52 54 54 53 53 53 53 52 52 52 54 56 57 59 61 61 61 61 61 62 63 63 62
43 42 41 42 43 43 44 45 46 46 46 47 48 47 47 48 48 49 48 47 48 49 51 53 54 53 53 53 53 53 55 56 58 59 61 62 62 62 62 62 63 63 62
38 38 38 39 40 41 42 44 45 45 45 46 45 45 47 46 48 48 47 45 46 47 49 50 52 54 55 55 54 53 54 56 57 58 60 62 62 62 62 62 63 63 62
38 35 36 37 38 39 39 38 40 43 43 44 43 44 46 45 45 45 46 46 43 43 44 44 47 49 52 54 55 54 53 54 55 57 58 59 59 59 60 61 61 61 61
31 32 34 33 33 32 30 32 36 36 36 40 42 42 39 40 42 44 47 48 45 40 39 40 42 45 49 50 51 52 54 54 56 56 56 56 56 57 58 58 58 59 59
28 28 27 26 25 23 25 26 34 27 30 37 29 33 35 39 40 44 47 45 43 42 39 37 38 41 44 45 48 49 50 51 54 55 56 55 55 55 56 57 57 57 57
24 23 21 23 21 20 21 23 28 22 29 29 26 28 32 36 41 41 43 38 37 40 40 39 36 35 37 42 46 48 48 49 51 53 55 55 55 55 55 55 56 57 57
20 19 18 19 18 18 19 22 20 19 27 23 26 30 33 37 33 36 37 32 36 41 34 32 32 34 38 38 41 43 44 47 48 50 53 54 54 55 55 55 55 55 56
17 16 17 17 16 17 17 15 17 21 22 25 28 26 20 27 26 27 27 29 36 35 34 34 33 36 35 35 40 41 40 41 45 48 51 53 54 54 54 54 54 54 54
16 15 15 15 15 15 15 15 20 22 24 28 23 20 18 19 22 27 25 28 35 34 34 34 34 33 33 34 37 36 36 39 40 41 46 47 50 52 53 53 53 52 52
15 15 14 14 14 15 12 20 22 23 24 23 21 20 23 27 30 29 29 30 33 33 32 34 33 31 31 31 32 35 36 38 39 39 41 43 46 49 49 50 50 50 51
14 15 14 14 14 14 24 27 27 23 23 22 22 23 23 27 28 33 33 33 31 29 28 30 31 28 28 30 34 36 37 36 34 39 41 41 42 45 45 47 49 50 50
15 14 14 14 14 15 25 28 29 23 23 23 24 24 24 25 30 29 31 32 31 32 31 29 28 29 29 32 36 35 34 35 36 37 39 37 41 41 45 44 48 49 50
14 14 14 15 15 15 25 27 29 24 24 24 25 26 26 30 29 27 27 30 32 27 27 30 32 34 34 37 36 34 36 35 36 39 40 38 41 41 43 43 45 46 47
14 14 15 15 16 16 25 27 27 23 24 24 25 27 31 27 29 31 29 28 25 30 31 32 34 34 35 34 34 33 33 33 33 34 37 39 40 40 34 35 37 42 45
15 16 15 16 19 17 24 28 26 23 24 24 28 30 28 26 30 30 23 25 27 24 25 29 31 32 31 31 33 33 34 32 31 31 32 36 37 33 32 31 33 39 45

GFSMA_sfc_dewp_015.txt.gz
Dewpoint
59 60 59 59 59 59 59 59 58 58 58 57 58 58 57 56 55 54 54 55 56 58 58 57 58 59 58 60 63 65 65 65 64 63 63 63 63 63 61 60 60 60 60
59 59 59 59 59 59 58 58 58 58 58 57 57 57 56 56 55 55 54 54 55 57 59 59 58 58 59 59 60 64 64 65 65 64 64 63 63 63 63 63 63 63 62
60 60 59 58 58 58 58 58 57 57 57 56 56 56 55 55 55 55 54 53 53 55 56 59 60 60 59 59 60 61 63 64 65 65 64 64 63 63 64 64 64 64 64
59 59 58 58 58 58 57 56 56 56 55 55 54 55 54 55 55 54 54 54 53 52 54 56 58 60 60 61 60 60 62 62 62 63 64 65 64 64 64 64 64 64 64
58 58 57 57 57 57 56 56 56 55 55 55 55 55 55 55 55 54 54 54 53 53 53 54 55 57 59 60 61 61 63 62 61 62 62 63 64 65 65 64 64 64 64
56 56 56 56 57 57 57 57 56 56 56 56 55 55 56 56 56 55 54 54 54 54 53 53 53 53 55 56 58 60 61 63 63 62 62 62 62 63 64 64 64 64 65
55 55 54 53 55 55 55 56 56 56 56 57 55 54 55 56 56 56 56 55 55 55 55 54 54 53 52 56 56 58 59 61 62 63 63 63 62 62 62 63 63 64 64
44 42 44 45 45 47 47 48 50 50 52 53 54 54 52 51 53 56 56 55 55 55 55 55 55 54 54 53 53 56 57 59 60 61 63 63 63 63 63 63 63 63 63
42 41 42 42 43 44 44 45 46 46 45 45 47 51 48 47 50 49 52 53 54 55 55 55 55 55 55 54 54 54 55 56 58 60 61 62 63 64 64 64 64 64 63
41 39 40 41 41 42 42 43 42 44 43 43 44 42 47 48 44 43 40 46 47 49 52 52 54 54 55 55 55 54 54 56 57 60 61 61 62 62 62 64 64 64 63
40 37 38 39 39 39 41 42 41 42 42 43 43 44 44 45 46 45 44 41 45 44 47 49 50 52 54 55 56 56 56 56 58 60 62 62 62 63 63 63 63 64 63
35 33 33 34 35 35 37 36 38 40 41 42 43 43 43 44 44 44 43 42 42 42 43 46 47 48 50 53 55 55 56 57 58 59 61 62 63 62 63 63 63 64 63
30 29 30 28 29 30 29 30 34 40 40 40 41 42 42 40 38 39 41 41 42 42 43 44 44 45 47 50 51 53 53 56 57 57 58 59 59 61 61 62 62 63 63
26 26 26 24 24 23 21 25 29 38 34 36 40 36 35 32 35 38 40 42 40 39 38 36 37 38 40 42 46 48 45 49 52 55 54 55 57 57 58 59 60 60 61
18 21 22 21 22 20 20 23 24 27 25 28 33 30 31 32 37 39 42 43 40 37 31 29 30 34 39 40 39 34 39 46 51 52 53 54 55 55 56 57 58 58 59
19 19 18 18 19 17 17 18 21 22 20 23 24 25 30 32 35 39 39 37 38 34 32 30 31 37 35 33 35 36 35 42 45 48 50 50 52 53 54 55 56 57 57
17 16 15 15 14 14 14 16 16 16 19 23 24 27 29 29 26 28 33 33 31 30 30 29 35 35 34 34 35 36 36 35 42 47 49 48 49 51 53 53 54 55 56
15 14 13 13 12 13 14 13 14 18 20 22 24 29 24 19 22 23 25 26 29 30 32 31 36 33 32 34 36 36 35 39 39 41 42 48 46 46 48 51 53 54 54
14 13 14 13 12 14 14 14 16 20 21 23 24 24 22 21 21 24 27 28 30 29 32 33 30 32 34 34 34 34 35 36 37 40 40 41 44 45 46 46 48 52 53
14 14 13 13 14 13 15 15 20 22 22 23 23 23 22 22 23 26 26 29 29 31 31 31 31 30 31 31 32 30 32 34 35 35 38 39 41 43 45 46 49 50 51
14 14 14 13 14 15 11 21 23 23 23 23 23 23 24 27 30 30 28 29 30 30 30 29 29 29 29 28 29 30 29 32 35 39 37 37 40 42 44 42 44 49 50
14 15 14 13 14 13 24 27 27 24 24 23 23 24 24 28 28 32 32 31 30 30 29 32 29 27 27 29 31 32 33 31 33 36 35 36 37 39 41 41 43 45 47
14 14 13 13 14 15 25 28 29 24 24 23 23 24 25 25 30 29 31 31 33 31 29 27 27 29 30 28 32 33 33 34 32 34 35 32 35 37 40 40 44 45 46
14 13 13 14 15 15 25 27 28 23 23 22 23 24 25 28 28 26 26 34 26 24 26 27 27 27 29 31 31 30 32 32 33 34 34 32 37 35 39 43 45 46 46
14 14 14 15 14 16 24 27 27 23 22 22 23 24 29 24 26 29 34 25 23 24 26 28 28 30 30 31 31 31 32 30 29 30 34 33 33 35 38 40 41 41 42
15 16 15 15 19 16 24 27 26 22 23 22 25 28 27 24 28 34 24 22 23 24 25 25 26 26 28 28 31 31 33 30 30 28 33 32 32 32 32 36 35 36 36

GFSMA_sfc_dewp_018.txt.gz
Dewpoint
57 57 57 57 57 57 57 57 57 57 57 57 57 57 57 57 57 56 56 59 60 59 61 62 61 59 59 60 60 63 64 65 66 65 64 64 64 64 63 62 62 62 62
59 59 59 58 58 58 58 57 57 57 57 57 57 57 57 57 57 57 57 57 61 59 60 62 63 62 61 60 59 62 62 64 65 66 65 65 64 64 64 64 64 64 64
60 60 60 59 58 58 58 58 58 58 57 57 57 57 56 56 56 56 57 57 57 59 60 60 62 63 63 63 62 61 63 63 63 64 65 65 65 64 64 64 64 64 64
60 60 59 58 58 58 58 58 58 58 58 58 57 57 56 56 56 56 56 56 56 56 58 60 60 60 62 63 64 63 64 63 63 63 64 64 65 65 65 64 64 64 64
58 58 58 59 59 59 58 58 57 57 56 56 56 56 56 55 56 56 56 56 56 56 56 57 59 59 59 60 62 64 64 64 63 63 63 63 63 64 65 65 64 64 64
57 57 55 52 52 53 52 51 52 52 52 52 51 52 52 53 54 53 54 54 55 56 56 56 56 56 58 58 59 60 62 62 64 64 63 63 63 63 63 64 65 65 65
43 44 44 42 43 43 43 42 43 43 43 44 42 43 45 47 50 48 52 54 52 52 53 55 55 56 56 60 60 59 60 61 62 63 64 64 64 63 63 63 63 64 65
40 39 41 40 41 40 41 41 42 42 41 41 40 41 38 39 40 43 42 40 43 44 47 51 52 54 55 56 57 59 59 59 61 62 62 63 64 64 65 64 63 63 63
38 38 39 39 39 40 39 40 39 41 38 39 39 39 38 37 40 38 38 38 38 42 41 43 45 47 47 49 54 55 57 58 59 60 61 61 63 63 63 64 65 65 64
35 32 33 34 34 34 34 35 32 35 35 35 36 34 39 38 36 36 35 38 38 39 40 41 41 42 43 46 51 54 56 57 59 60 60 61 62 62 63 63 64 65 65
32 28 28 29 29 28 29 30 29 30 31 32 32 34 36 37 36 36 36 32 33 32 34 36 38 40 41 45 46 49 55 55 56 58 60 60 61 62 61 62 65 64 65
26 25 23 23 24 25 25 24 26 29 33 32 31 33 36 36 34 32 29 30 31 30 30 34 37 39 43 43 45 49 50 48 48 49 52 54 56 57 59 61 63 61 62
21 21 21 19 19 21 21 22 27 31 34 30 31 33 33 27 26 25 26 29 31 32 34 35 34 35 34 36 38 46 46 47 41 43 48 51 51 52 54 56 57 58 59
17 19 18 16 17 17 17 19 22 26 28 26 24 27 28 24 26 29 32 35 35 34 32 30 31 28 27 31 37 45 36 41 42 42 46 43 42 50 51 50 53 55 55
12 14 15 15 15 15 15 18 18 17 19 20 21 24 23 24 28 29 30 34 33 30 29 30 28 23 24 27 32 35 34 37 41 39 40 43 46 49 51 52 51 53 55
13 13 12 12 12 12 12 13 14 15 15 18 19 21 23 24 26 25 25 24 25 26 25 24 25 24 25 25 34 33 30 37 40 39 38 41 44 46 47 48 51 52 53
11 10 10 10 9 10 10 11 11 13 16 18 20 21 22 25 22 20 22 21 22 23 26 26 27 27 26 28 29 28 31 30 32 36 37 41 41 44 46 48 46 48 50
10 10 10 9 9 10 11 10 11 14 16 18 19 21 21 19 21 21 20 21 24 25 27 29 27 26 26 26 28 28 27 26 28 31 34 36 38 41 44 45 47 46 47
10 10 11 10 10 12 12 12 11 15 18 19 20 20 21 21 20 21 22 24 25 25 29 29 27 28 28 28 27 28 28 27 25 33 34 34 36 37 40 43 44 43 45
11 12 11 11 12 11 12 10 16 19 19 20 21 22 21 21 21 22 23 24 27 27 27 28 29 29 28 28 28 27 26 28 29 28 32 34 37 39 40 40 43 43 46
12 13 13 11 11 12 7 18 21 21 21 21 21 20 21 24 28 27 25 28 29 27 29 29 29 26 24 24 25 27 29 28 29 32 33 35 37 38 38 38 39 40 43
13 13 12 11 10 9 21 25 26 23 22 21 20 19 19 23 24 29 31 30 28 28 29 30 26 23 23 25 27 26 28 28 27 31 33 32 33 33 35 35 37 40 43
13 13 11 11 10 12 21 26 28 23 22 20 19 19 18 17 25 26 27 28 30 35 32 25 24 25 27 26 27 29 30 30 29 29 31 30 32 34 35 35 39 40 41
12 11 10 11 13 11 22 25 28 22 20 19 19 19 19 22 26 24 24 28 32 24 24 21 23 26 29 31 29 28 30 31 32 32 32 32 34 33 35 36 37 40 41
12 11 12 12 12 12 22 25 25 21 19 19 19 19 23 24 25 27 28 32 26 23 22 25 28 29 28 28 28 28 30 28 29 29 33 32 33 34 35 35 35 36 39
12 12 11 11 16 13 22 25 25 21 20 19 21 23 26 23 26 30 29 21 25 21 23 25 24 23 24 25 28 27 30 28 28 27 32 31 32 31 29 35 37 36 37

GFSMA_sfc_dewp_021.txt.gz
Dewpoint
56 56 56 56 57 57 57 57 57 57 57 57 57 57 57 57 57 58 58 60 63 63 61 62 63 64 63 61 61 63 64 64 65 66 66 66 65 65 65 64 64 64 64
59 59 59 59 58 58 58 58 58 58 58 57 57 57 56 57 57 57 57 58 62 63 63 63 63 64 65 64 63 63 63 64 64 65 65 66 66 65 65 65 64 64 64
60 60 60 60 59 59 58 58 58 58 58 58 57 57 57 55 55 55 56 56 58 61 63 63 63 63 63 65 65 65 65 64 64 64 64 65 66 65 65 65 65 65 64
59 59 59 59 59 59 59 59 58 56 55 54 54 55 55 54 54 53 54 55 57 56 59 63 63 62 62 62 63 64 65 65 65 64 64 64 64 65 65 65 65 65 65
59 59 59 57 54 55 53 52 50 50 50 50 50 50 50 51 51 49 51 53 54 57 57 58 60 62 63 61 62 62 63 64 64 64 64 64 64 64 64 65 65 64 65
47 48 46 44 44 45 43 44 44 43 43 42 39 40 42 44 46 47 50 49 52 52 49 52 55 56 60 62 62 62 62 61 62 64 64 64 65 65 64 64 64 64 65
41 42 42 40 41 41 41 40 42 43 43 42 41 42 42 41 42 42 42 40 41 41 42 43 45 49 51 60 60 62 61 61 61 61 63 64 63 64 65 65 65 64 64
38 38 39 39 39 39 39 39 39 39 39 39 37 38 36 36 40 38 36 37 38 39 41 41 42 44 45 45 47 56 58 59 59 59 61 61 62 62 63 63 64 65 65
33 33 34 34 34 35 36 36 35 37 34 35 35 35 33 31 35 35 35 35 35 34 38 37 35 37 39 41 44 46 50 56 56 57 58 58 59 59 60 61 61 64 65
31 27 28 28 29 30 29 31 27 30 31 32 34 28 36 35 33 32 32 32 31 28 29 32 31 32 35 39 45 49 53 52 53 55 56 56 56 57 59 60 62 61 63
28 25 23 25 24 25 26 27 27 28 28 32 32 31 32 33 34 30 26 27 27 26 27 29 31 32 33 36 42 45 50 49 49 50 52 52 52 52 53 54 56 58 60
25 24 21 21 21 23 24 23 26 28 30 34 32 30 30 33 30 26 25 26 27 29 30 31 33 34 35 35 39 45 46 45 45 47 48 49 49 49 51 52 52 56 56
21 21 19 17 18 22 21 23 27 32 32 33 30 27 26 28 28 25 26 27 28 30 32 31 31 26 27 30 29 38 36 42 41 43 46 47 45 45 46 47 48 48 50
17 17 16 15 15 16 16 19 24 28 29 27 27 25 25 25 25 26 27 28 28 26 23 22 25 26 25 25 29 35 27 36 40 42 43 43 41 41 42 44 44 44 48
11 13 14 13 13 13 13 18 20 18 19 21 22 24 23 24 26 26 29 28 26 22 20 21 21 22 26 25 29 27 27 36 39 38 38 39 41 41 39 41 44 46 45
11 12 11 11 11 11 12 14 15 16 15 18 19 21 22 23 23 27 28 25 24 23 21 22 22 25 26 27 29 28 27 35 36 35 35 39 39 37 38 41 41 42 43
9 9 9 9 9 10 10 12 12 14 13 17 20 21 22 22 23 22 24 24 24 24 22 23 24 28 27 26 26 27 28 28 28 34 33 34 35 36 37 38 40 39 40
9 9 9 10 10 10 11 11 12 12 13 16 19 20 21 18 22 23 23 23 24 24 24 25 26 26 25 26 27 27 25 25 26 30 33 33 34 34 35 37 39 41 43
10 10 11 12 11 12 12 11 11 11 15 18 19 20 21 22 21 22 22 23 24 24 27 27 25 25 26 28 27 24 21 23 24 31 31 32 33 34 36 37 40 41 42
12 13 13 13 13 11 12 12 12 17 19 19 21 22 22 21 20 21 22 24 26 28 28 27 25 26 27 27 25 22 21 25 26 23 27 29 31 33 34 36 39 41 41
13 14 14 13 13 14 9 16 19 20 21 21 21 20 20 25 27 25 21 25 27 29 25 26 28 28 30 24 22 22 23 24 24 26 26 28 29 31 33 33 34 37 38
14 15 14 13 13 11 21 24 23 22 22 21 21 20 19 25 23 26 28 29 28 25 24 27 29 29 23 21 21 23 24 25 24 26 27 26 27 28 29 30 33 35 36
14 14 13 13 12 13 22 24 26 22 22 21 19 19 18 17 23 24 28 29 28 29 31 27 25 24 21 20 24 26 28 27 23 24 27 26 28 30 31 31 34 34 35
13 12 12 13 14 11 21 23 25 22 21 21 19 19 19 21 24 25 23 28 30 29 25 21 22 21 22 26 29 26 24 26 28 27 29 26 31 29 31 31 34 33 35
13 12 13 13 12 11 21 23 24 21 21 20 20 20 22 22 26 28 27 30 23 20 23 26 27 27 26 27 26 24 26 25 24 25 27 26 28 31 29 30 30 32 38
13 13 12 11 15 11 21 24 24 21 21 21 22 24 27 23 27 30 26 20 21 19 25 23 21 21 23 23 26 25 26 25 24 23 25 25 26 27 25 29 32 32 31

GFSMA_sfc_dewp_024.txt.gz
Dewpoint
57 57 57 57 58 58 57 57 58 58 58 58 58 57 57 57 57 57 58 60 63 65 65 64 64 64 64 64 65 65 64 65 65 65 65 66 66 66 66 66 65 65 65
59 60 59 60 60 59 59 59 58 58 58 58 57 57 56 56 56 55 55 56 61 64 65 64 64 64 64 64 64 65 66 66 65 65 65 65 65 65 66 66 66 65 65
60 60 60 60 60 59 59 59 58 59 58 57 56 55 54 55 54 53 54 54 55 59 62 65 65 64 63 64 63 63 64 65 65 66 65 65 65 64 65 65 65 65 65
59 59 59 56 57 59 57 56 53 50 51 51 51 52 53 53 53 52 51 51 53 53 59 63 65 64 64 62 62 62 62 64 64 64 65 65 65 64 64 64 65 65 65
51 53 48 45 46 48 46 45 44 45 44 43 43 41 43 42 45 45 46 45 46 43 41 50 57 60 62 63 62 61 62 63 63 64 64 64 64 65 65 65 64 64 65
43 45 44 42 43 43 43 42 41 43 43 42 38 39 40 41 42 41 42 35 34 37 40 39 41 44 54 56 55 55 57 59 61 61 63 62 63 63 63 64 65 66 65
41 40 42 41 41 40 40 37 39 38 38 39 38 35 37 36 36 35 30 30 35 34 37 36 39 39 37 48 50 50 51 52 53 55 59 60 60 60 60 61 63 63 65
35 33 35 36 34 36 35 34 33 35 35 35 34 33 33 32 34 30 34 35 32 35 30 34 28 27 30 34 39 48 48 48 51 54 55 56 57 58 59 59 60 61 62
30 30 30 30 31 32 32 31 31 30 31 33 32 32 32 31 30 32 31 33 28 26 30 26 22 26 26 28 38 42 48 48 50 52 53 54 55 56 56 57 57 58 59
28 26 27 27 27 29 27 28 26 28 29 31 34 30 31 32 29 29 33 28 27 24 24 25 25 26 30 31 37 42 46 50 47 49 51 52 52 53 54 54 54 55 55
27 24 24 25 24 27 25 25 25 27 29 31 34 32 30 31 30 31 27 24 24 25 26 28 30 29 30 28 32 33 43 40 42 44 46 48 49 51 52 52 53 53 53
28 24 22 21 21 23 24 24 24 25 29 31 33 30 30 27 24 26 26 23 22 23 26 29 30 26 26 22 30 39 37 38 40 42 45 45 44 44 46 48 48 48 48
23 20 19 18 19 20 21 21 25 26 29 28 30 26 29 26 25 26 23 23 23 24 25 26 24 22 22 22 24 34 35 35 37 40 42 43 43 43 44 45 45 44 45
18 17 17 16 15 16 17 17 23 26 23 24 20 24 24 24 26 24 24 24 22 25 23 20 21 20 21 23 27 35 26 34 35 36 38 40 39 39 40 40 40 43 43
12 13 14 13 14 14 14 16 20 18 17 18 20 21 22 23 25 25 25 25 26 21 20 20 20 21 23 24 28 28 25 31 34 35 36 35 36 36 37 37 38 39 39
12 12 12 12 12 13 13 13 16 17 15 17 17 18 19 22 22 23 26 24 24 22 20 21 21 22 22 24 27 25 24 33 33 35 34 33 34 35 34 35 36 37 35
10 11 11 11 12 13 12 13 13 13 13 15 16 17 20 20 21 22 23 24 23 23 22 22 22 22 26 24 24 24 27 26 27 32 31 31 31 32 33 34 35 35 37
11 11 12 13 13 14 14 13 12 13 13 15 17 19 19 19 21 22 23 21 22 23 22 21 24 26 24 24 24 24 26 25 24 27 30 30 33 33 32 33 34 35 35
12 13 14 15 15 16 15 13 13 13 17 18 20 21 21 21 21 22 21 21 21 21 26 27 25 26 25 24 25 27 28 24 21 26 27 30 31 31 32 33 33 34 35
13 15 15 16 17 16 15 14 15 17 19 20 22 22 22 21 21 20 20 20 22 25 26 26 27 28 24 25 27 30 22 22 19 19 25 28 30 31 31 32 32 33 34
15 16 17 16 16 15 11 15 18 19 20 21 22 22 22 24 28 25 20 22 24 23 26 30 28 26 26 25 24 22 19 19 21 23 24 26 24 25 26 29 30 32 33
15 16 16 15 15 12 22 25 22 19 20 21 22 21 20 23 23 27 28 28 26 27 27 29 28 25 19 19 22 21 21 22 22 26 23 22 23 24 26 27 31 34 35
14 14 14 13 13 14 23 24 25 19 21 21 21 20 19 18 23 22 27 30 34 33 30 25 20 19 19 24 27 25 25 26 25 24 24 23 25 25 28 28 31 31 33
13 13 13 13 13 12 22 23 24 20 21 21 21 21 21 21 23 24 24 29 29 28 23 21 20 20 24 23 23 22 23 23 24 24 25 23 25 27 24 26 32 31 31
13 13 13 13 12 10 21 23 22 19 20 20 21 22 23 24 27 28 26 30 26 22 24 25 29 29 26 25 24 21 24 24 21 21 24 23 24 24 24 25 26 30 32
13 13 11 11 16 10 21 24 23 20 20 20 22 24 28 25 27 30 26 21 21 18 20 25 19 19 21 22 26 23 24 23 22 20 22 22 22 23 22 25 28 30 27

GFSMA_sfc_dewp_027.txt.gz
Dewpoint
57 57 57 57 57 58 57 57 58 58 58 58 58 58 57 57 56 57 57 60 63 64 63 62 63 65 65 65 65 65 65 65 65 66 66 66 65 66 66 66 66 66 65
59 59 59 60 60 60 59 59 58 58 58 57 57 55 55 54 54 54 54 54 60 60 61 61 62 62 62 62 63 64 65 64 64 64 65 66 65 65 65 65 65 66 66
60 60 60 58 58 58 54 51 46 48 48 47 45 47 51 51 52 52 52 53 53 57 59 53 54 58 60 62 62 62 63 63 64 64 65 64 65 65 65 65 65 65 65
58 55 45 44 46 46 45 43 44 44 43 43 42 42 42 42 43 44 45 45 44 39 46 51 52 51 53 55 57 58 59 62 62 63 62 63 63 64 64 65 65 65 65
44 43 43 42 43 43 43 41 42 42 41 41 37 37 40 37 41 41 40 33 32 36 39 46 50 51 49 48 50 52 53 53 56 56 58 59 59 61 62 63 63 64 65
40 41 40 38 40 41 39 37 37 36 37 37 31 36 33 37 40 36 33 26 33 34 36 35 38 39 44 41 44 46 46 47 47 49 51 55 56 57 58 59 60 60 62
35 35 37 35 35 36 33 31 34 33 34 34 35 30 34 34 31 29 22 34 31 33 29 26 28 24 24 39 40 42 46 47 48 48 51 52 53 55 56 57 58 58 59
31 29 31 32 30 32 29 28 29 31 33 32 33 32 30 32 32 24 31 29 31 28 26 24 22 22 25 26 32 42 42 43 45 49 48 50 51 52 53 54 54 54 57
27 28 27 27 28 30 28 26 27 28 29 32 33 31 28 29 26 31 25 31 28 26 26 23 25 25 25 30 35 35 40 41 45 47 48 49 50 51 53 54 54 55 55
24 25 25 25 25 28 24 26 25 27 29 29 33 32 30 30 29 26 31 23 27 26 24 26 26 27 30 30 31 36 35 39 42 45 46 47 48 48 48 49 50 52 53
23 23 22 23 23 25 23 23 24 24 26 29 30 32 28 29 29 26 20 22 25 24 24 25 26 28 28 24 24 28 35 37 40 42 43 43 43 46 47 47 47 47 47
25 21 20 19 19 21 21 21 23 22 25 28 27 30 28 25 25 22 20 21 22 20 24 23 27 28 24 24 27 32 33 35 38 41 43 43 43 43 43 44 47 48 47
20 18 17 16 17 18 19 19 22 23 25 24 24 23 24 27 25 22 23 21 19 21 21 23 25 23 22 22 22 30 32 33 36 39 42 42 40 39 41 42 42 42 43
17 15 14 14 14 15 15 17 21 23 20 21 17 18 23 22 23 24 22 22 21 19 21 20 22 22 22 22 27 30 23 34 34 35 37 38 36 37 37 40 40 40 41
12 12 12 12 13 14 14 16 19 16 17 17 18 20 20 19 23 25 25 24 23 21 19 20 21 21 24 24 24 24 25 30 32 33 34 34 35 36 35 35 35 36 37
11 11 12 12 13 14 14 14 16 17 16 17 17 18 18 20 21 22 24 26 24 22 21 20 20 21 21 21 27 25 23 30 32 32 33 34 34 36 33 34 33 34 36
11 11 12 13 13 14 14 14 14 14 14 16 18 18 20 20 22 22 23 23 24 24 21 21 21 21 22 25 24 24 26 24 24 32 34 34 34 33 32 32 32 37 35
12 12 14 14 15 16 16 15 14 14 15 17 19 21 20 21 22 22 22 22 22 21 21 20 22 24 25 25 24 26 23 23 27 34 32 32 31 30 31 31 32 32 33
13 14 15 16 16 18 18 16 14 14 17 19 21 21 22 22 22 22 22 21 22 21 24 26 27 26 24 28 28 25 27 28 27 27 28 28 28 29 30 31 33 32 31
14 15 16 17 18 17 17 16 15 18 19 20 22 23 22 22 22 22 21 21 22 23 23 22 23 28 26 26 29 23 18 20 21 20 24 26 29 30 31 30 29 30 30
15 17 17 17 17 16 12 17 18 19 19 20 22 22 22 25 27 25 21 21 22 23 27 30 26 28 26 20 18 19 18 21 23 23 22 23 26 26 24 27 27 29 30
15 15 15 15 15 13 23 25 23 18 19 20 21 21 22 24 24 28 28 28 27 25 25 28 28 23 19 19 20 19 22 25 22 24 24 25 23 22 23 24 29 30 32
14 14 14 14 13 14 23 24 25 18 20 21 21 21 21 20 25 23 28 29 29 32 32 27 22 21 21 20 23 27 26 24 23 23 22 21 22 21 24 23 28 30 30
13 13 13 14 14 12 23 23 25 19 20 21 21 21 21 23 26 25 23 25 30 30 25 22 21 21 25 26 22 20 21 23 24 22 22 20 22 21 21 22 28 29 29
13 13 13 13 12 12 22 24 23 20 20 20 21 22 25 24 27 27 25 30 26 24 22 25 29 28 25 25 24 22 24 22 19 20 21 21 22 21 22 22 23 28 30
13 14 12 12 16 12 22 25 24 21 21 20 24 26 27 23 26 31 26 22 20 17 22 25 17 18 20 21 26 23 24 20 20 19 20 21 21 22 21 23 25 27 28